Home   Weather   Manado   Past weeks

Flag for Indonesia Past Weather in Manado, North Sulawesi, Indonesia — Yesterday and Last 2 Weeks

Now
73 °F

Light rain. Passing clouds.


Feels Like: 68 °F
Forecast: 79 / 82 °F
Wind: 1 mph from North

Location: Menado / Dr. Sam Ratulangi

Current Time: Sep 29, 2016 at 9:37:57 PM

Latest Report: Sep 29, 2016 at 9:00 PM


Visibility: 5 mi

Pressure: 29.89 "Hg

Humidity: 100%

Dew Point: 73 °F

Location of ManadoLocation

Past Weather in Manado — Graph

°F

Manado Temperature Yesterday

Maximum temperature yesterday: 95 °F (at 12:00 PM)
Minimum temperature yesterday: 73 °F (at 4:00 AM)
Average temperature yesterday: 83 °F

High & Low Weather Summary for the Past Weeks

 TemperatureHumidityPressure
High95 °F (Sep 17, 11:30 AM)100% (Sep 16, 1:00 AM)29.89 "Hg (Sep 16, 1:00 AM)
Low72 °F (Sep 27, 4:00 AM)44% (Sep 15, 2:30 PM)29.71 "Hg (Sep 24, 1:30 PM)
Average81 °F81%29.81 "Hg
* Reported Sep 14 8:00 PM — Sep 29 8:30 PM, Manado, Weather by CustomWeather, © 2016

Note: Actual official high and low records may vary slightly from our data, if they occured in-between our weather recording intervals... More about our weather records

Advertising

Manado Weather History for the Previous 24 Hours

Scroll right to see more
 ConditionsComfort  
Time TempWeatherWind HumidityBarometerVisibility
8:30 PM
Thu, Sep 29
73 °FLight rain. Overcast.2 mph100%29.89 "Hg4 mi
8:00 PM73 °FLight rain. Overcast.6 mph94%29.89 "Hg4 mi
7:30 PM73 °FRain. Passing clouds.3 mph100%29.89 "Hg3 mi
7:00 PM73 °FRain. Passing clouds.3 mph100%29.86 "Hg1 mi
6:30 PM73 °FLight rain. Overcast.6 mph100%29.86 "Hg2 mi
6:00 PM73 °FLight rain. Overcast.3 mph100%29.86 "Hg2 mi
5:30 PM73 °FRain. Scattered clouds.9 mph100%29.86 "Hg2 mi
5:00 PM75 °FLight rain. Cloudy.10 mph94%29.83 "Hg1 mi
4:30 PM77 °FScattered clouds.5 mph94%29.83 "Hg6 mi
4:00 PM77 °FWarm.1 mph94%29.80 "Hg5 mi
3:30 PM77 °FLight rain. Scattered clouds.2 mph94%29.80 "Hg4 mi
3:00 PM75 °FLight rain. Scattered clouds.1 mph94%29.80 "Hg3 mi
2:00 PM75 °FLight rain. Scattered clouds.8 mph94%29.80 "Hg1 mi
1:30 PM82 °FLight rain. Scattered clouds.3 mph79%29.80 "Hg5 mi
1:00 PM82 °FLight rain. Scattered clouds.6 mph74%29.80 "Hg5 mi
12:30 PM82 °FPassing clouds.3 mph79%29.80 "Hg6 mi
12:00 PM82 °FPassing clouds.3 mph79%29.83 "Hg6 mi
11:30 AM84 °FPassing clouds.2 mph74%29.83 "Hg6 mi
11:00 AM84 °FPassing clouds.2 mph74%29.86 "Hg6 mi
10:30 AM84 °FLight rain. Passing clouds.3 mph74%29.86 "Hg5 mi
10:00 AM84 °FLight rain. Passing clouds.3 mph74%29.86 "Hg5 mi
9:30 AM84 °FLight rain. Passing clouds.2 mph79%29.86 "Hg6 mi
9:00 AM82 °FLight rain. Passing clouds.2 mph84%29.86 "Hg6 mi
8:30 AM79 °FPassing clouds.1 mph89%29.86 "HgN/A
8:00 AM79 °FPassing clouds.1 mph89%29.86 "HgN/A
7:30 AM77 °FPassing clouds.2 mph89%29.83 "HgN/A
7:00 AM75 °FPassing clouds.2 mph94%29.83 "HgN/A
6:30 AM75 °FPassing clouds.2 mph94%29.83 "HgN/A
6:00 AM75 °FPassing clouds.1 mph94%29.80 "HgN/A
5:30 AM75 °FPassing clouds.2 mph94%29.80 "HgN/A
5:00 AM75 °FPassing clouds.2 mph94%29.77 "Hg6 mi
4:30 AM75 °FPassing clouds.1 mph94%29.77 "Hg6 mi
3:30 AM75 °FPassing clouds.1 mph94%29.77 "Hg6 mi
3:00 AM75 °FPassing clouds.3 mph94%29.77 "Hg6 mi
2:30 AM75 °FPassing clouds.2 mph94%29.77 "Hg6 mi
2:00 AM75 °FPassing clouds.1 mph94%29.80 "Hg6 mi
1:30 AM75 °FPassing clouds.1 mph94%29.80 "Hg6 mi
1:00 AM75 °FPassing clouds.2 mph100%29.83 "Hg6 mi
12:30 AM75 °FPassing clouds.2 mph94%29.83 "Hg6 mi
12:00 AM77 °FPassing clouds.3 mph89%29.83 "Hg6 mi
11:30 PM
Wed, Sep 28
77 °FPassing clouds.2 mph89%29.83 "Hg6 mi
11:00 PM77 °FPassing clouds.2 mph89%29.83 "Hg6 mi
10:30 PM77 °FPassing clouds.7 mph89%29.83 "Hg6 mi
10:00 PM77 °FPassing clouds.2 mph89%29.83 "Hg6 mi
9:30 PM77 °FPassing clouds.1 mph89%29.83 "Hg6 mi
9:00 PM77 °FPassing clouds.1 mph89%29.83 "Hg6 mi
Weather by CustomWeather, © 2016

See weather overviewHow to use our weather pages